Home   Weather   Rabat   Past weeks

Flag for Morocco Past Weather in Rabat, Morocco — Yesterday and Last 2 Weeks

Now
59 °F

Clear.


Feels Like: 60 °F
Forecast: N/A
Wind: 3 mph from Southeast

Location: Rabat-Sale

Current Time: Dec 9, 2016 at 9:21:49 pm

Latest Report: Dec 9, 2016 at 9:00 pm


Visibility: 5 mi

Pressure: 30.30 "Hg

Humidity: 77%

Dew Point: 52 °F

Location of RabatLocation

Past Weather in Rabat — Graph

°F

Rabat Temperature Yesterday

Maximum temperature yesterday: 73 °F (at 2:30 pm)
Minimum temperature yesterday: 55 °F (at 1:00 am)
Average temperature yesterday: 61 °F

High & Low Weather Summary for the Past Weeks

 TemperatureHumidityPressure
High75 °F (Dec 1, 12:30 pm)94% (Nov 26, 6:00 pm)30.33 "Hg (Nov 26, 6:00 pm)
Low50 °F (Nov 29, 4:30 am)34% (Dec 1, 2:00 pm)29.65 "Hg (Nov 27, 4:00 am)
Average61 °F77%29.99 "Hg
* Reported Nov 24 8:00 pm — Dec 9 8:00 pm, Rabat, Weather by CustomWeather, © 2016

Note: Actual official high and low records may vary slightly from our data, if they occured in-between our weather recording intervals... More about our weather records

Advertising

Rabat Weather History for the Previous 24 Hours

Scroll right to see more
 ConditionsComfort  
Time TempWeatherWind HumidityBarometerVisibility
8:00 pm
Fri, Dec 9
57 °FClear.2 mph82%30.30 "Hg5 mi
7:30 pm57 °FClear.3 mph82%30.30 "Hg5 mi
7:00 pm57 °FClear.2 mph88%30.30 "Hg5 mi
6:30 pm57 °FClear.No wind88%30.30 "Hg5 mi
6:00 pm59 °FClear.No wind82%30.30 "Hg5 mi
5:30 pm63 °FClear.1 mph73%30.30 "Hg4 mi
5:00 pm66 °FPassing clouds.3 mph64%30.30 "HgN/A
4:30 pm68 °FPassing clouds.3 mph60%30.30 "HgN/A
4:00 pm68 °FPassing clouds.3 mph60%30.27 "HgN/A
3:30 pm68 °FPassing clouds.5 mph60%30.27 "HgN/A
3:00 pm70 °FPassing clouds.5 mph53%30.27 "HgN/A
2:30 pm70 °FPassing clouds.5 mph57%30.27 "HgN/A
2:00 pm70 °FPassing clouds.6 mph57%30.27 "Hg5 mi
1:30 pm70 °FClear.7 mph53%30.30 "Hg5 mi
1:00 pm72 °FClear.3 mph50%30.30 "Hg5 mi
12:30 pm72 °FClear.No wind47%30.30 "Hg5 mi
12:00 pm70 °FClear.2 mph46%30.30 "Hg5 mi
11:30 am70 °FClear.3 mph50%30.33 "Hg5 mi
11:00 am68 °FClear.3 mph53%30.33 "Hg5 mi
10:30 am68 °FClear.5 mph49%30.33 "Hg5 mi
10:00 am64 °FClear.6 mph56%30.33 "Hg5 mi
9:30 am63 °FClear.5 mph64%30.30 "Hg5 mi
9:00 am61 °FClear.3 mph63%30.30 "Hg5 mi
8:30 am55 °FClear.3 mph77%30.30 "Hg5 mi
8:00 am52 °FClear.2 mph88%30.30 "Hg5 mi
7:30 am52 °FClear.2 mph82%30.27 "Hg5 mi
7:00 am54 °FClear.2 mph82%30.27 "Hg5 mi
6:30 am52 °FClear.2 mph88%30.27 "Hg5 mi
6:00 am54 °FClear.3 mph82%30.27 "Hg5 mi
5:30 am54 °FClear.3 mph82%30.24 "Hg5 mi
4:30 am54 °FClear.2 mph88%30.24 "Hg5 mi
4:00 am55 °FClear.3 mph82%30.24 "Hg5 mi
3:30 am57 °FClear.3 mph77%30.24 "Hg5 mi
3:00 am55 °FClear.3 mph82%30.24 "Hg5 mi
2:30 am57 °FClear.2 mph82%30.24 "Hg5 mi
2:00 am57 °FClear.3 mph82%30.24 "Hg5 mi
1:30 am57 °FClear.3 mph82%30.24 "Hg5 mi
1:00 am55 °FClear.2 mph88%30.24 "Hg5 mi
12:30 am57 °FClear.2 mph82%30.24 "Hg5 mi
12:00 am59 °FClear.2 mph77%30.24 "Hg5 mi
11:00 pm
Thu, Dec 8
59 °FClear.5 mph77%30.27 "Hg5 mi
10:30 pm59 °FClear.5 mph77%30.27 "Hg5 mi
10:00 pm59 °FClear.5 mph77%30.27 "Hg5 mi
9:30 pm59 °FClear.3 mph77%30.27 "Hg5 mi
9:00 pm59 °FClear.2 mph72%30.24 "Hg5 mi
Weather by CustomWeather, © 2016

See weather overviewHow to use our weather pages